World > North America > United States > New York

Hancock, New York Regional Weather

Lat: 41.95N, Lon: 75.28W
Wx Zone: NYZ057Web Search

Helpful Tip: Abbreviated, 7 Day, 14 Day Forecasts. There is a weather forecast for every taste.

Feedback

Hancock, NY Regional Weather

Expires:202008081200;;119725
ASUS41 KBGM 081110
RWRBGM

REGIONAL WEATHER ROUNDUP
NATIONAL WEATHER SERVICE BINGHAMTON NY
700 AM EDT SAT AUG 08 2020

Note: "fair" indicates few or no clouds below 12,000 feet with no
significant weather and/or obstructions to visibility.

* = Station(s) that does not report precipitation, such as rain, 
snow, etc, also no thunder or fog.


NYZ009-015>018-022>025-036-037-044>046-055>057-062-081200
...Central New York...
  
CITY           SKY/WX    TMP DP  RH WIND       PRES   REMARKS
Binghamton     CLEAR     61  61 100 S3        30.19R FOG              
Cortland       FOG       61  61 100 CALM      30.19R VSB 1/4          
Dansville      CLOUDY    65  62  90 S3        30.18S                  
Elmira         FOG       64  64 100 W3        30.18R VSB 1/4          
Endicott       CLOUDY    63  63 100 CALM      30.18R FOG              
Ithaca         CLEAR     63  63 100 CALM      30.19R                  
Monticello     CLEAR     61  60  97 CALM      30.21R                  
Norwich        FOG       61  61 100 CALM      30.19S VSB 1/4          
Oneonta        CLEAR     61  61 100 CALM      30.21S FOG              
Penn Yan       CLOUDY    65  65 100 SW5       30.18R FOG              
Rome           CLEAR     64  61  90 E3        30.17R                  
Seneca Falls   MOSUNNY   64  64 100 W5        30.17R FOG              
Sidney         FOG       63  63 100 CALM      30.19S VSB 1/4          
Skaneateles    FAIR      64  64 100 CALM      30.17R FOG              
Syracuse       MOCLDY    67  64  90 E3        30.15S                  
$$
 

SKY/WX - Weather  TMP - Temperature  DP - Dew Point  RH - Relative Humidity
WIND - Wind Direction/Speed PRES - Barometric Pressure VSB - Visibility
WCI - Wind Chill Index E13G22 Wind - East Wind 13 mph/Gusts of 22 mph
Hancock Weather Map
UTC Time: 8/8/2020, 11:29
Your Time: